Location: Santa Fe
(35.6870°N, 105.9370°W)
Time: 18:56:15
(UTC-06:00)

Amateur Radio Satellites - All Passes

Search period start: 29 July 2014 18:26
Search period end: 30 July 2014 18:26
Location: Santa Fe, 35.6870°N, 105.9370°W

Satellite Date Start Highest point End Downlink Frequencies (MHz)
Time Altitude Azimuth
OPAL 29 Jul 18:33:04 18:36:22 18° 297° (WNW) 18:39:42 ?
JAS-2 29 Jul 18:40:28 18:48:20 86° 256° (WSW) 18:55:46 435.800 - 435.900 CW/SSB, 435.910 FM
STRAND 1 29 Jul 19:17:30 19:22:11 36° 98° (E) 19:26:50 ?
SO-67 29 Jul 19:26:52 19:30:18 72° 77° (ENE) 19:33:46 435.3500 MHz FM
HO-68 29 Jul 19:28:46 19:31:29 13° 55° (NE) 19:34:12 435.675 MHz FM
Hamsat 29 Jul 19:33:08 19:35:12 13° 268° (W) 19:37:16 145.90 MHz
RS-15 29 Jul 19:58:40 20:05:00 16° 23° (NNE) 20:11:23 29.354 - 29.394 USB, Beacon 29.352 USB
MaSat-1 29 Jul 20:25:38 20:28:30 20° 101° (E) 20:31:42 437.345 MHz
JAS-2 29 Jul 20:30:13 20:33:57 14° 270° (W) 20:37:38 435.800 - 435.900 CW/SSB, 435.910 FM
STRAND 1 29 Jul 20:57:11 21:01:08 23° 293° (WNW) 21:05:05 ?
Oscar 11 29 Jul 20:59:35 21:01:51 14° 66° (ENE) 21:04:06 145.825 FM, Beacon 2401.500 USB
SO-50 29 Jul 21:03:03 21:07:14 30° 53° (NE) 21:11:27 436.795 FM
HO-68 29 Jul 21:10:50 21:17:59 75° 72° (ENE) 21:25:08 435.675 MHz FM
UKube-1 29 Jul 21:49:00 21:53:20 70° 258° (WSW) 21:57:43 145.840 MHz, 145.915 MHz
MaSat-1 29 Jul 22:01:53 22:05:29 30° 302° (WNW) 22:09:37 437.345 MHz
RS-15 29 Jul 22:10:11 22:20:53 51° 52° (NE) 22:31:55 29.354 - 29.394 USB, Beacon 29.352 USB
Oscar 11 29 Jul 22:33:32 22:37:38 43° 261° (W) 22:41:45 145.825 FM, Beacon 2401.500 USB
SO-50 29 Jul 22:43:37 22:47:43 29° 248° (WSW) 22:51:51 436.795 FM
FUNcube-1 29 Jul 22:57:20 23:01:39 69° 259° (WSW) 23:05:54 145.950 - 145.970 MHz USB
UOSAT-12 29 Jul 22:59:05 23:03:17 31° 53° (NE) 23:07:25 437.025 FM, 437.400 FM
HO-68 29 Jul 23:01:52 23:06:14 17° 268° (W) 23:10:38 435.675 MHz FM
ISS 29 Jul 23:12:27 23:15:46 89° 308° (NW) 23:19:08 145.800 FM
AO-40 29 Jul 23:53:00 02:58:34 40° 191° (S) 08:30:55 Beacon 2401.320
Sapphire 29 Jul 23:54:00 23:58:26 27° 107° (ESE) 00:02:53 437.095 MHz 1200 baud AX-25 AFSK
RS-15 30 Jul 00:22:50 00:33:00 44° 252° (WSW) 00:43:36 29.354 - 29.394 USB, Beacon 29.352 USB
PCSat 30 Jul 00:26:15 00:31:32 59° 113° (ESE) 00:36:52 145.825 MHz
UOSAT-12 30 Jul 00:39:23 00:43:18 26° 249° (WSW) 00:47:09 437.025 FM, 437.400 FM
ISS 30 Jul 00:51:12 00:52:55 13° 335° (NNW) 00:54:38 145.800 FM
Oscar 10/S400 30 Jul 00:52:10 01:24:02 73° 183° (S) 10:58:03 145.825 - 145.975 CW/USB, Beacon 145.810 USB
Sapphire 30 Jul 01:36:41 01:41:38 36° 303° (WNW) 01:46:38 437.095 MHz 1200 baud AX-25 AFSK
JAS-1B 30 Jul 01:53:59 01:56:28 11° 82° (E) 01:58:50 435.800 - 435.900 CW/SSB
Oscar 19 30 Jul 02:01:14 02:05:52 32° 97° (E) 02:10:28 437.125 CW, 437.150 USB
AO-Echo 30 Jul 02:10:24 02:13:37 17° 93° (E) 02:16:44 ?
PCSat 30 Jul 02:11:36 02:15:21 19° 310° (NW) 02:19:07 145.825 MHz
Oscar 16 30 Jul 02:29:26 02:34:35 66° 102° (ESE) 02:39:43 437.025 USB, Beacon 2401.1428
ITAMSAT 1 30 Jul 02:52:45 02:57:43 46° 100° (E) 03:02:39 435.822 SSB
Uribyol 2 30 Jul 03:11:46 03:16:56 77° 103° (ESE) 03:22:05 436.500 FM
AO-27 30 Jul 03:12:07 03:17:19 75° 103° (ESE) 03:22:28 436.795 MHz FM
TMSAT-1 30 Jul 03:16:37 03:20:43 23° 95° (E) 03:24:48 436.925 FM
PANSAT 30 Jul 03:21:24 03:22:11 11° 159° (SSE) 03:22:58 not established
JAS-1B 30 Jul 03:39:29 03:48:43 74° 102° (ESE) 03:56:26 435.800 - 435.900 CW/SSB
Oscar 19 30 Jul 03:40:47 03:45:02 26° 292° (WNW) 03:49:17 437.125 CW, 437.150 USB
Gurwin Techsat 1B 30 Jul 03:40:54 03:46:08 56° 101° (E) 03:51:19 435.225 FM
AO-7 30 Jul 03:45:24 03:48:19 12° 90° (E) 03:51:13 29.400 - 29.500 MHz
AO-Echo 30 Jul 03:47:50 03:52:36 44° 288° (WNW) 03:57:12 ?
OPAL 30 Jul 04:05:14 04:10:07 65° 72° (ENE) 04:15:02 ?
Uosat F 30 Jul 04:08:54 04:11:24 14° 92° (E) 04:13:53 435.120 FM
Oscar 16 30 Jul 04:10:52 04:13:19 14° 297° (WNW) 04:15:47 437.025 USB, Beacon 2401.1428
ITAMSAT 1 30 Jul 04:33:16 04:36:50 19° 295° (WNW) 04:40:22 435.822 SSB
Uribyol 2 30 Jul 04:54:02 04:55:43 12° 298° (WNW) 04:57:23 436.500 FM
AO-27 30 Jul 04:54:12 04:56:09 12° 298° (WNW) 04:58:05 436.795 MHz FM
TMSAT-1 30 Jul 04:55:51 05:00:43 38° 289° (WNW) 05:05:33 436.925 FM
PANSAT 30 Jul 04:58:40 05:01:46 23° 170° (S) 05:04:52 not established
Gurwin Techsat 1B 30 Jul 05:22:21 05:25:35 17° 296° (WNW) 05:28:49 435.225 FM
JAS-1B 30 Jul 05:31:13 05:38:05 24° 303° (WNW) 05:44:16 435.800 - 435.900 CW/SSB
KITSAT 1 30 Jul 05:32:51 05:40:22 44° 109° (ESE) 05:47:54 435.175 FM
AO-7 30 Jul 05:33:48 05:42:10 79° 106° (ESE) 05:50:27 29.400 - 29.500 MHz
ISS 30 Jul 05:43:48 05:46:50 30° 35° (NE) 05:49:50 145.800 FM
Uosat F 30 Jul 05:45:35 05:50:30 56° 287° (WNW) 05:55:22 435.120 FM
OPAL 30 Jul 05:47:47 05:49:24 11° 266° (W) 05:51:00 ?
JAS-2 30 Jul 05:58:11 05:59:48 11° 88° (E) 06:01:22 435.800 - 435.900 CW/SSB, 435.910 FM
Saudisat 1A 30 Jul 06:16:41 06:18:53 14° 108° (ESE) 06:21:05 436.775 MHz
MaSat-1 30 Jul 06:22:33 06:27:20 33° 59° (ENE) 06:31:49 437.345 MHz
STRAND 1 30 Jul 06:30:35 06:35:20 39° 71° (ENE) 06:40:05 ?
PANSAT 30 Jul 06:38:12 06:41:31 27° 183° (S) 06:44:50 not established
Hamsat 30 Jul 07:19:14 07:23:30 63° 284° (WNW) 07:27:47 145.90 MHz
ISS 30 Jul 07:20:42 07:23:26 23° 230° (SW) 07:26:09 145.800 FM
AO-7 30 Jul 07:28:12 07:34:01 22° 304° (NW) 07:39:51 29.400 - 29.500 MHz
KITSAT 1 30 Jul 07:28:19 07:35:46 39° 307° (NW) 07:43:16 435.175 FM
JAS-2 30 Jul 07:39:53 07:45:40 71° 286° (WNW) 07:50:54 435.800 - 435.900 CW/SSB, 435.910 FM
Saudisat 1A 30 Jul 07:53:43 07:58:00 50° 303° (WNW) 08:02:19 436.775 MHz
MaSat-1 30 Jul 08:00:08 08:04:29 27° 257° (WSW) 08:08:33 437.345 MHz
STRAND 1 30 Jul 08:10:46 08:14:36 21° 265° (W) 08:18:27 ?
PANSAT 30 Jul 08:18:38 08:21:12 17° 196° (SSW) 08:23:46 not established
SO-67 30 Jul 08:26:34 08:30:00 58° 283° (WNW) 08:33:24 435.3500 MHz FM
HO-68 30 Jul 08:44:12 08:48:04 15° 92° (E) 08:51:54 435.675 MHz FM
Sapphire 30 Jul 08:45:37 08:48:19 14° 47° (NE) 08:51:00 437.095 MHz 1200 baud AX-25 AFSK
PCSat 30 Jul 09:17:34 09:22:07 26° 54° (NE) 09:26:37 145.825 MHz
UKube-1 30 Jul 09:40:50 09:44:24 24° 96° (E) 09:47:55 145.840 MHz, 145.915 MHz
Oscar 11 30 Jul 10:23:58 10:28:04 39° 99° (E) 10:32:08 145.825 FM, Beacon 2401.500 USB
Sapphire 30 Jul 10:26:59 10:32:26 85° 245° (WSW) 10:37:50 437.095 MHz 1200 baud AX-25 AFSK
HO-68 30 Jul 10:29:15 10:36:25 81° 287° (WNW) 10:43:32 435.675 MHz FM
FUNcube-1 30 Jul 10:49:46 10:53:19 26° 97° (E) 10:56:54 145.950 - 145.970 MHz USB
PCSat 30 Jul 11:00:36 11:05:36 39° 250° (WSW) 11:10:34 145.825 MHz
SO-50 30 Jul 11:16:47 11:19:36 17° 109° (ESE) 11:22:27 436.795 FM
UKube-1 30 Jul 11:16:57 11:20:30 25° 291° (WNW) 11:24:01 145.840 MHz, 145.915 MHz
Oscar 11 30 Jul 12:01:18 12:03:54 16° 293° (WNW) 12:06:29 145.825 FM, Beacon 2401.500 USB
HO-68 30 Jul 12:19:46 12:23:00 14° 304° (NW) 12:26:14 435.675 MHz FM
FUNcube-1 30 Jul 12:26:24 12:29:34 21° 290° (WNW) 12:32:45 145.950 - 145.970 MHz USB
RS-15 30 Jul 12:30:32 12:40:41 42° 108° (ESE) 12:50:35 29.354 - 29.394 USB, Beacon 29.352 USB
JAS-1B 30 Jul 12:36:19 12:38:23 11° 48° (NE) 12:40:29 435.800 - 435.900 CW/SSB
SO-50 30 Jul 12:55:32 12:59:46 42° 304° (NW) 13:04:05 436.795 FM
UOSAT-12 30 Jul 13:08:51 13:11:47 17° 109° (ESE) 13:14:45 437.025 FM, 437.400 FM
Oscar 19 30 Jul 13:15:25 13:20:00 35° 70° (ENE) 13:24:37 437.125 CW, 437.150 USB
AO-Echo 30 Jul 13:20:17 13:23:55 19° 66° (ENE) 13:27:34 ?
KITSAT 1 30 Jul 13:30:27 13:34:48 15° 37° (NE) 13:39:07 435.175 FM
Oscar 16 30 Jul 13:43:30 13:48:35 71° 75° (ENE) 13:53:42 437.025 USB, Beacon 2401.1428
ITAMSAT 1 30 Jul 14:07:50 14:12:53 52° 73° (ENE) 14:17:56 435.822 SSB
JAS-1B 30 Jul 14:17:56 14:26:25 52° 67° (ENE) 14:35:47 435.800 - 435.900 CW/SSB
Uribyol 2 30 Jul 14:26:41 14:31:53 86° 76° (ENE) 14:37:06 436.500 FM
AO-27 30 Jul 14:27:17 14:32:31 84° 76° (ENE) 14:37:45 436.795 MHz FM
TMSAT-1 30 Jul 14:34:36 14:38:59 27° 68° (ENE) 14:43:23 436.925 FM
AO-7 30 Jul 14:41:16 14:45:57 17° 53° (NE) 14:50:37 29.400 - 29.500 MHz
RS-15 30 Jul 14:41:58 14:52:42 52° 307° (NW) 15:03:18 29.354 - 29.394 USB, Beacon 29.352 USB
UOSAT-12 30 Jul 14:47:08 14:51:31 44° 304° (NW) 14:56:01 437.025 FM, 437.400 FM
Oscar 19 30 Jul 14:55:21 14:59:22 23° 265° (W) 15:03:25 437.125 CW, 437.150 USB
AO-Echo 30 Jul 14:57:08 15:02:15 49° 261° (W) 15:07:25 ?
Gurwin Techsat 1B 30 Jul 14:59:03 15:04:18 66° 74° (ENE) 15:09:34 435.225 FM
Uosat F 30 Jul 15:19:37 15:22:31 16° 64° (ENE) 15:25:24 435.120 FM
KITSAT 1 30 Jul 15:23:53 15:31:55 64° 59° (ENE) 15:39:52 435.175 FM
Oscar 16 30 Jul 15:27:08 15:28:23 11° 269° (W) 15:29:39 437.025 USB, Beacon 2401.1428
ITAMSAT 1 30 Jul 15:49:30 15:52:38 16° 267° (W) 15:55:46 435.822 SSB
JAS-1B 30 Jul 16:09:03 16:16:59 38° 266° (W) 16:25:49 435.800 - 435.900 CW/SSB
TMSAT-1 30 Jul 16:14:02 16:18:45 32° 263° (W) 16:23:29 436.925 FM
OPAL 30 Jul 16:18:38 16:22:34 22° 97° (E) 16:26:30 ?
Saudisat 1A 30 Jul 16:23:06 16:27:25 53° 57° (ENE) 16:31:42 436.775 MHz
AO-7 30 Jul 16:29:05 16:37:27 81° 71° (ENE) 16:45:50 29.400 - 29.500 MHz
Gurwin Techsat 1B 30 Jul 16:42:24 16:44:40 13° 269° (W) 16:46:57 435.225 FM
Uosat F 30 Jul 16:55:52 17:00:48 55° 259° (W) 17:05:46 435.120 FM
RS-15 30 Jul 17:02:13 17:08:31 16° 337° (NNW) 17:14:50 29.354 - 29.394 USB, Beacon 29.352 USB
KITSAT 1 30 Jul 17:20:30 17:26:37 25° 256° (WSW) 17:32:45 435.175 FM
JAS-2 30 Jul 17:46:32 17:53:40 41° 69° (ENE) 18:00:23 435.800 - 435.900 CW/SSB, 435.910 FM
OPAL 30 Jul 17:56:49 18:01:30 38° 291° (WNW) 18:06:13 ?
Saudisat 1A 30 Jul 18:04:33 18:06:31 13° 252° (WSW) 18:08:28 436.775 MHz
Hamsat 30 Jul 18:09:35 18:13:42 61° 76° (ENE) 18:17:51 145.90 MHz
